QPF
0.02 0.03 0.03 0.03 0.03 0.02 0.03 0.03 0.03 0.04 0.04 0.04 0.05 0.04 0.04 0.03 0.05 0.05 0.08 0.08 0.05 0.03 0.03 0.02 0.02 0.02 0.02 0.03 0.03 0.04 0.05 0.07 0.08 0.07 0.08 0.09 0.07 0.06
0.03 0.03 0.03 0.03 0.03 0.02 0.02 0.03 0.04 0.05 0.04 0.05 0.06 0.04 0.03 0.02 0.03 0.04 0.07 0.08 0.07 0.05 0.03 0.03 0.03 0.02 0.02 0.02 0.02 0.02 0.02 0.03 0.05 0.06 0.06 0.07 0.09 0.08
0.03 0.02 0.02 0.03 0.03 0.04 0.04 0.03 0.04 0.05 0.05 0.03 0.03 0.03 0.02 0.01 0.01 0.03 0.04 0.05 0.06 0.07 0.06 0.04 0.04 0.03 0.02 0.01 0.01 0.01 0.01 0.01 0.03 0.04 0.04 0.05 0.05 0.06
0.05 0.04 0.04 0.05 0.05 0.04 0.04 0.03 0.04 0.05 0.05 0.03 0.02 0.02 0.02 0.02 0.02 0.02 0.02 0.02 0.02 0.04 0.05 0.05 0.04 0.03 0.03 0.01 0.01 0.01 0.00 0.01 0.02 0.03 0.04 0.05 0.05 0.05
0.07 0.06 0.06 0.07 0.06 0.05 0.06 0.05 0.04 0.04 0.05 0.04 0.03 0.03 0.02 0.02 0.03 0.03 0.03 0.04 0.03 0.02 0.03 0.03 0.03 0.03 0.03 0.03 0.01 0.01 0.01 0.01 0.02 0.04 0.06 0.08 0.09 0.08
0.06 0.06 0.06 0.06 0.07 0.07 0.07 0.07 0.05 0.06 0.06 0.06 0.04 0.04 0.03 0.04 0.05 0.05 0.06 0.08 0.07 0.04 0.02 0.01 0.02 0.02 0.03 0.03 0.02 0.01 0.01 0.02 0.03 0.06 0.10 0.12 0.11 0.08
0.05 0.05 0.06 0.07 0.06 0.07 0.06 0.06 0.07 0.06 0.04 0.05 0.04 0.04 0.03 0.04 0.05 0.06 0.06 0.06 0.07 0.05 0.03 0.02 0.02 0.02 0.03 0.03 0.02 0.01 0.01 0.01 0.01 0.02 0.03 0.04 0.04 0.03
0.05 0.05 0.06 0.05 0.05 0.06 0.05 0.05 0.06 0.06 0.05 0.05 0.04 0.03 0.03 0.04 0.05 0.06 0.05 0.05 0.04 0.03 0.04 0.03 0.03 0.03 0.02 0.02 0.02 0.02 0.01 0.01 0.01 0.02 0.01 0.01 0.02 0.02
0.06 0.05 0.06 0.04 0.04 0.05 0.04 0.04 0.03 0.03 0.03 0.04 0.03 0.03 0.04 0.05 0.07 0.06 0.06 0.05 0.05 0.04 0.05 0.05 0.05 0.04 0.02 0.01 0.01 0.01 0.01 0.01 0.01 0.01 0.01 0.02 0.02 0.03
0.05 0.06 0.06 0.06 0.06 0.06 0.04 0.02 0.02 0.02 0.02 0.03 0.04 0.04 0.04 0.06 0.08 0.08 0.09 0.08 0.07 0.05 0.06 0.07 0.05 0.04 0.02 0.01 0.01 0.01 0.01 0.00 0.00 0.00 0.00 0.01 0.01 0.03
0.04 0.04 0.03 0.04 0.04 0.03 0.03 0.03 0.03 0.03 0.02 0.02 0.02 0.02 0.03 0.04 0.06 0.07 0.08 0.08 0.08 0.07 0.06 0.06 0.06 0.06 0.04 0.02 0.01 0.01 0.00 0.00 0.00 0.00 0.00 0.00 0.01 0.02
0.03 0.02 0.02 0.02 0.02 0.01 0.03 0.05 0.05 0.04 0.03 0.03 0.02 0.01 0.02 0.03 0.05 0.07 0.09 0.09 0.07 0.07 0.08 0.09 0.06 0.06 0.05 0.04 0.02 0.02 0.01 0.01 0.01 0.01 0.01 0.01 0.01 0.01
0.03 0.02 0.02 0.01 0.01 0.01 0.01 0.02 0.02 0.04 0.04 0.03 0.03 0.02 0.02 0.03 0.04 0.05 0.07 0.08 0.08 0.07 0.07 0.10 0.08 0.06 0.05 0.05 0.05 0.04 0.03 0.03 0.02 0.02 0.02 0.02 0.02 0.02
0.03 0.02 0.01 0.01 0.01 0.00 0.00 0.00 0.01 0.02 0.03 0.04 0.03 0.02 0.02 0.03 0.04 0.06 0.08 0.08 0.09 0.09 0.10 0.12 0.12 0.09 0.09 0.08 0.07 0.06 0.05 0.05 0.06 0.06 0.04 0.03 0.04 0.04
0.01 0.02 0.02 0.02 0.02 0.01 0.00 0.00 0.01 0.02 0.03 0.03 0.03 0.02 0.02 0.02 0.03 0.05 0.07 0.09 0.09 0.09 0.10 0.12 0.12 0.10 0.10 0.09 0.08 0.06 0.06 0.06 0.08 0.09 0.10 0.08 0.07 0.06
0.01 0.01 0.01 0.01 0.01 0.01 0.01 0.00 0.01 0.02 0.02 0.02 0.02 0.02 0.03 0.03 0.03 0.04 0.06 0.06 0.07 0.06 0.08 0.10 0.11 0.11 0.10 0.08 0.09 0.08 0.07 0.08 0.08 0.08 0.09 0.10 0.10 0.10
0.01 0.01 0.01 0.01 0.01 0.01 0.01 0.01 0.01 0.01 0.02 0.02 0.03 0.03 0.03 0.03 0.03 0.03 0.04 0.06 0.07 0.05 0.06 0.06 0.09 0.10 0.10 0.10 0.11 0.09 0.08 0.08 0.09 0.11 0.13 0.11 0.10 0.10
0.01 0.02 0.02 0.03 0.03 0.03 0.03 0.02 0.01 0.01 0.02 0.02 0.02 0.03 0.03 0.03 0.03 0.04 0.05 0.05 0.05 0.05 0.06 0.07 0.08 0.10 0.11 0.10 0.12 0.13 0.11 0.12 0.13 0.13 0.12 0.11 0.09 0.09
0.01 0.02 0.02 0.02 0.03 0.03 0.03 0.04 0.03 0.03 0.03 0.03 0.04 0.05 0.05 0.04 0.04 0.05 0.06 0.05 0.04 0.04 0.05 0.07 0.08 0.10 0.10 0.09 0.09 0.11 0.13 0.13 0.14 0.14 0.13 0.13 0.11 0.10
0.01 0.01 0.01 0.02 0.02 0.03 0.04 0.04 0.03 0.03 0.03 0.03 0.04 0.05 0.05 0.05 0.05 0.05 0.06 0.06 0.05 0.04 0.04 0.06 0.07 0.08 0.09 0.10 0.11 0.10 0.10 0.11 0.11 0.10 0.09 0.09 0.09 0.10
0.02 0.02 0.02 0.02 0.02 0.03 0.05 0.06 0.04 0.04 0.03 0.04 0.05 0.06 0.06 0.05 0.04 0.04 0.05 0.06 0.06 0.05 0.05 0.04 0.06 0.07 0.09 0.11 0.09 0.09 0.09 0.10 0.10 0.08 0.07 0.08 0.08 0.08
0.02 0.03 0.03 0.03 0.03 0.03 0.05 0.06 0.06 0.06 0.05 0.05 0.06 0.06 0.07 0.07 0.06 0.05 0.06 0.07 0.09 0.08 0.06 0.04 0.05 0.08 0.09 0.11 0.09 0.07 0.07 0.08 0.09 0.09 0.09 0.09 0.08 0.06
0.03 0.03 0.04 0.05 0.04 0.05 0.05 0.05 0.05 0.05 0.05 0.05 0.05 0.06 0.08 0.09 0.08 0.08 0.08 0.09 0.10 0.09 0.08 0.07 0.08 0.10 0.09 0.09 0.08 0.07 0.07 0.07 0.06 0.06 0.08 0.10 0.09 0.05
MSLP
1014.91 1014.90 1014.94 1015.01 1015.07 1015.07 1014.99 1014.79 1014.45 1013.96 1013.36 1012.65 1011.90 1011.15 1010.44 1009.83 1009.33 1008.98 1008.77 1008.69 1008.72 1008.83 1008.97 1009.13 1009.27 1009.39 1009.47 1009.51 1009.53 1009.54 1009.55 1009.59 1009.64 1009.72 1009.81 1009.90 1009.99 1010.05
1014.20 1014.12 1014.09 1014.11 1014.15 1014.17 1014.13 1014.01 1013.78 1013.42 1012.94 1012.35 1011.69 1010.99 1010.30 1009.67 1009.12 1008.68 1008.37 1008.18 1008.09 1008.09 1008.14 1008.22 1008.31 1008.39 1008.45 1008.50 1008.54 1008.58 1008.64 1008.72 1008.82 1008.93 1009.04 1009.15 1009.23 1009.27
1013.46 1013.31 1013.21 1013.17 1013.17 1013.18 1013.18 1013.12 1012.97 1012.73 1012.38 1011.92 1011.38 1010.78 1010.15 1009.54 1008.98 1008.50 1008.11 1007.82 1007.62 1007.50 1007.45 1007.43 1007.43 1007.45 1007.48 1007.51 1007.56 1007.63 1007.72 1007.85 1007.99 1008.14 1008.28 1008.40 1008.48 1008.51
1012.72 1012.52 1012.37 1012.27 1012.23 1012.21 1012.21 1012.19 1012.11 1011.97 1011.74 1011.42 1011.00 1010.52 1009.99 1009.44 1008.91 1008.41 1007.98 1007.61 1007.32 1007.09 1006.92 1006.79 1006.70 1006.63 1006.60 1006.59 1006.63 1006.70 1006.81 1006.97 1007.15 1007.34 1007.51 1007.65 1007.73 1007.74
1012.00 1011.78 1011.59 1011.45 1011.37 1011.33 1011.31 1011.31 1011.28 1011.22 1011.09 1010.88 1010.60 1010.24 1009.82 1009.35 1008.87 1008.40 1007.94 1007.53 1007.16 1006.83 1006.55 1006.31 1006.11 1005.95 1005.83 1005.76 1005.75 1005.80 1005.92 1006.08 1006.28 1006.50 1006.69 1006.85 1006.94 1006.95
1011.33 1011.10 1010.90 1010.74 1010.62 1010.55 1010.52 1010.52 1010.52 1010.51 1010.46 1010.35 1010.18 1009.93 1009.61 1009.24 1008.83 1008.39 1007.95 1007.51 1007.09 1006.69 1006.31 1005.97 1005.66 1005.39 1005.18 1005.03 1004.95 1004.96 1005.04 1005.19 1005.39 1005.62 1005.83 1006.00 1006.10 1006.13
1010.72 1010.51 1010.31 1010.13 1009.99 1009.90 1009.85 1009.84 1009.85 1009.86 1009.86 1009.82 1009.73 1009.57 1009.35 1009.06 1008.72 1008.33 1007.91 1007.47 1007.03 1006.58 1006.14 1005.71 1005.31 1004.95 1004.64 1004.40 1004.24 1004.18 1004.20 1004.31 1004.49 1004.70 1004.91 1005.09 1005.21 1005.25
1010.19 1009.99 1009.80 1009.62 1009.47 1009.35 1009.28 1009.25 1009.25 1009.26 1009.28 1009.27 1009.23 1009.13 1008.97 1008.75 1008.47 1008.14 1007.76 1007.34 1006.90 1006.43 1005.96 1005.48 1005.02 1004.58 1004.18 1003.85 1003.61 1003.47 1003.42 1003.47 1003.60 1003.78 1003.97 1004.15 1004.29 1004.35
1009.76 1009.57 1009.37 1009.18 1009.01 1008.87 1008.77 1008.71 1008.68 1008.68 1008.68 1008.68 1008.65 1008.58 1008.45 1008.28 1008.04 1007.76 1007.42 1007.04 1006.63 1006.18 1005.71 1005.21 1004.72 1004.24 1003.79 1003.39 1003.07 1002.85 1002.72 1002.70 1002.76 1002.89 1003.06 1003.23 1003.37 1003.46
1009.42 1009.23 1009.02 1008.81 1008.61 1008.44 1008.30 1008.19 1008.12 1008.08 1008.05 1008.02 1007.97 1007.89 1007.77 1007.61 1007.41 1007.16 1006.87 1006.53 1006.17 1005.77 1005.33 1004.87 1004.39 1003.91 1003.44 1003.01 1002.63 1002.34 1002.14 1002.04 1002.04 1002.11 1002.24 1002.39 1002.53 1002.63
1009.20 1008.97 1008.73 1008.48 1008.24 1008.02 1007.83 1007.67 1007.54 1007.45 1007.36 1007.29 1007.20 1007.09 1006.95 1006.79 1006.59 1006.37 1006.12 1005.84 1005.54 1005.20 1004.84 1004.45 1004.02 1003.58 1003.13 1002.69 1002.30 1001.96 1001.71 1001.54 1001.47 1001.48 1001.56 1001.68 1001.82 1001.93
1009.07 1008.79 1008.49 1008.19 1007.89 1007.61 1007.35 1007.14 1006.95 1006.79 1006.65 1006.52 1006.38 1006.22 1006.05 1005.87 1005.67 1005.46 1005.24 1005.02 1004.78 1004.53 1004.26 1003.95 1003.61 1003.24 1002.85 1002.45 1002.06 1001.71 1001.43 1001.21 1001.09 1001.05 1001.08 1001.17 1001.29 1001.41
1009.02 1008.67 1008.30 1007.93 1007.56 1007.21 1006.89 1006.61 1006.36 1006.14 1005.94 1005.75 1005.56 1005.35 1005.15 1004.94 1004.72 1004.52 1004.33 1004.15 1003.99 1003.82 1003.64 1003.43 1003.19 1002.91 1002.60 1002.25 1001.91 1001.57 1001.28 1001.05 1000.89 1000.81 1000.81 1000.87 1000.97 1001.08
1009.00 1008.59 1008.14 1007.69 1007.24 1006.82 1006.44 1006.10 1005.80 1005.52 1005.27 1005.03 1004.79 1004.56 1004.31 1004.08 1003.86 1003.66 1003.49 1003.35 1003.23 1003.14 1003.04 1002.93 1002.78 1002.60 1002.37 1002.10 1001.80 1001.50 1001.23 1000.99 1000.82 1000.73 1000.70 1000.74 1000.83 1000.94
1008.99 1008.50 1007.98 1007.45 1006.94 1006.45 1006.01 1005.62 1005.27 1004.96 1004.67 1004.41 1004.14 1003.88 1003.62 1003.37 1003.14 1002.94 1002.78 1002.67 1002.59 1002.54 1002.51 1002.47 1002.40 1002.29 1002.14 1001.94 1001.70 1001.45 1001.20 1000.99 1000.83 1000.73 1000.70 1000.74 1000.83 1000.93
1008.91 1008.36 1007.78 1007.19 1006.62 1006.08 1005.60 1005.17 1004.79 1004.46 1004.16 1003.88 1003.61 1003.35 1003.09 1002.83 1002.61 1002.41 1002.26 1002.15 1002.10 1002.08 1002.07 1002.07 1002.05 1001.99 1001.89 1001.74 1001.55 1001.35 1001.14 1000.96 1000.82 1000.74 1000.73 1000.77 1000.87 1000.99
1008.72 1008.14 1007.52 1006.89 1006.27 1005.71 1005.20 1004.75 1004.36 1004.03 1003.74 1003.47 1003.21 1002.95 1002.71 1002.47 1002.25 1002.07 1001.92 1001.82 1001.76 1001.74 1001.74 1001.74 1001.73 1001.69 1001.61 1001.48 1001.33 1001.15 1000.98 1000.83 1000.72 1000.67 1000.69 1000.76 1000.88 1001.02
1008.41 1007.82 1007.18 1006.53 1005.91 1005.33 1004.81 1004.36 1003.98 1003.66 1003.38 1003.13 1002.90 1002.67 1002.45 1002.24 1002.04 1001.86 1001.72 1001.61 1001.54 1001.50 1001.48 1001.46 1001.43 1001.37 1001.28 1001.15 1001.00 1000.84 1000.69 1000.56 1000.49 1000.47 1000.52 1000.63 1000.78 1000.95
1007.99 1007.41 1006.78 1006.15 1005.54 1004.97 1004.46 1004.02 1003.65 1003.35 1003.08 1002.85 1002.64 1002.45 1002.25 1002.07 1001.89 1001.73 1001.59 1001.48 1001.39 1001.33 1001.27 1001.21 1001.14 1001.04 1000.91 1000.76 1000.60 1000.43 1000.28 1000.17 1000.12 1000.13 1000.22 1000.36 1000.55 1000.77
1007.51 1006.96 1006.37 1005.78 1005.20 1004.66 1004.18 1003.76 1003.40 1003.10 1002.84 1002.62 1002.43 1002.25 1002.07 1001.91 1001.75 1001.60 1001.47 1001.36 1001.26 1001.17 1001.08 1000.98 1000.86 1000.71 1000.55 1000.36 1000.16 999.98 999.82 999.72 999.67 999.70 999.81 999.99 1000.21 1000.47
1007.03 1006.54 1006.02 1005.48 1004.95 1004.46 1004.00 1003.59 1003.24 1002.93 1002.67 1002.44 1002.23 1002.04 1001.87 1001.71 1001.56 1001.43 1001.31 1001.20 1001.10 1000.99 1000.88 1000.75 1000.60 1000.42 1000.22 1000.00 999.77 999.56 999.39 999.27 999.23 999.26 999.37 999.56 999.81 1000.09
1006.62 1006.21 1005.77 1005.31 1004.85 1004.40 1003.97 1003.57 1003.21 1002.88 1002.57 1002.30 1002.06 1001.84 1001.64 1001.47 1001.32 1001.19 1001.07 1000.98 1000.88 1000.79 1000.68 1000.55 1000.39 1000.20 999.98 999.74 999.49 999.26 999.07 998.93 998.87 998.88 998.99 999.17 999.41 999.69
1006.35 1006.03 1005.68 1005.31 1004.92 1004.52 1004.11 1003.71 1003.32 1002.94 1002.58 1002.24 1001.92 1001.64 1001.39 1001.18 1001.01 1000.87 1000.77 1000.69 1000.62 1000.55 1000.47 1000.37 1000.24 1000.07 999.86 999.63 999.38 999.14 998.93 998.77 998.67 998.66 998.72 998.87 999.07 999.33
Thickness
5759 5758 5756 5755 5755 5754 5752 5748 5739 5732 5734 5742 5744 5747 5747 5746 5743 5741 5739 5737 5735 5733 5731 5728 5726 5725 5723 5722 5721 5720 5720 5719 5719 5718 5717 5716 5715 5714
5757 5754 5753 5753 5752 5752 5750 5748 5743 5736 5732 5738 5740 5742 5743 5742 5740 5738 5737 5735 5733 5731 5729 5726 5724 5722 5721 5720 5719 5718 5718 5717 5716 5715 5715 5713 5712 5711
5754 5752 5750 5749 5747 5746 5745 5743 5741 5737 5730 5734 5738 5739 5738 5736 5734 5734 5733 5732 5730 5728 5726 5724 5722 5720 5718 5717 5716 5715 5715 5714 5713 5712 5711 5710 5709 5708
5750 5748 5746 5746 5743 5741 5739 5737 5736 5735 5730 5728 5731 5732 5732 5732 5731 5729 5729 5729 5728 5726 5723 5721 5719 5717 5715 5714 5713 5712 5711 5711 5710 5709 5708 5707 5706 5704
5747 5744 5743 5740 5737 5736 5734 5733 5731 5732 5730 5726 5725 5728 5728 5728 5725 5724 5724 5723 5723 5722 5719 5717 5715 5714 5712 5711 5709 5708 5707 5707 5706 5706 5704 5703 5702 5701
5744 5742 5740 5737 5734 5731 5730 5728 5727 5724 5724 5721 5720 5721 5721 5721 5719 5715 5715 5717 5716 5717 5714 5713 5711 5710 5709 5707 5706 5704 5703 5703 5702 5701 5700 5699 5698 5696
5739 5738 5736 5734 5731 5728 5726 5724 5721 5719 5717 5715 5714 5713 5713 5711 5709 5710 5708 5709 5710 5711 5708 5707 5706 5704 5702 5702 5701 5700 5699 5698 5697 5697 5696 5695 5694 5692
5733 5732 5731 5729 5726 5724 5721 5719 5715 5712 5710 5708 5707 5705 5706 5706 5705 5704 5701 5699 5698 5704 5702 5701 5702 5699 5699 5698 5697 5696 5695 5693 5693 5692 5692 5690 5689 5688
5728 5726 5725 5725 5721 5718 5715 5713 5710 5708 5705 5703 5700 5700 5700 5701 5699 5697 5695 5693 5692 5696 5694 5692 5694 5692 5694 5694 5693 5691 5690 5689 5688 5688 5687 5686 5685 5683
5723 5721 5718 5716 5715 5711 5709 5707 5705 5704 5702 5700 5699 5698 5698 5697 5694 5692 5691 5690 5691 5691 5689 5684 5686 5686 5689 5688 5688 5686 5685 5684 5683 5683 5682 5681 5680 5678
5717 5716 5713 5711 5707 5704 5701 5699 5698 5698 5699 5697 5696 5694 5693 5691 5689 5686 5684 5681 5680 5682 5683 5679 5679 5679 5680 5681 5682 5681 5681 5680 5679 5678 5676 5675 5674 5672
5711 5710 5707 5704 5700 5696 5694 5691 5689 5690 5691 5690 5688 5688 5687 5686 5684 5680 5677 5674 5672 5673 5677 5673 5672 5671 5670 5675 5676 5676 5675 5674 5673 5672 5671 5669 5668 5665
5703 5702 5701 5697 5693 5690 5687 5686 5684 5683 5682 5682 5682 5681 5681 5679 5678 5675 5673 5670 5667 5667 5670 5667 5665 5664 5663 5665 5668 5670 5670 5668 5666 5665 5664 5663 5662 5660
5694 5694 5693 5689 5686 5684 5682 5681 5679 5676 5675 5675 5674 5673 5672 5671 5670 5669 5668 5667 5665 5664 5664 5662 5660 5658 5656 5656 5658 5661 5663 5663 5661 5659 5658 5657 5655 5654
5686 5683 5682 5680 5678 5677 5676 5674 5671 5669 5667 5666 5665 5666 5666 5666 5665 5663 5662 5661 5659 5659 5659 5658 5655 5654 5652 5649 5650 5652 5653 5654 5655 5654 5653 5651 5649 5648
5676 5674 5672 5671 5671 5670 5668 5666 5664 5663 5661 5660 5659 5660 5660 5659 5657 5655 5653 5652 5650 5650 5652 5652 5651 5649 5646 5646 5645 5645 5646 5646 5649 5649 5647 5646 5644 5643
5666 5665 5665 5664 5663 5662 5662 5661 5659 5657 5654 5654 5652 5651 5650 5649 5649 5648 5646 5644 5642 5642 5642 5644 5644 5643 5642 5640 5638 5639 5639 5640 5641 5641 5639 5638 5637 5636
5656 5658 5658 5657 5656 5655 5654 5653 5652 5650 5649 5647 5645 5643 5643 5641 5640 5640 5639 5637 5635 5636 5636 5637 5636 5634 5633 5634 5634 5633 5633 5633 5634 5634 5633 5631 5630 5630
5649 5651 5650 5649 5649 5647 5646 5645 5644 5643 5642 5640 5638 5637 5636 5635 5634 5633 5632 5630 5630 5630 5631 5631 5629 5627 5624 5624 5628 5629 5628 5627 5627 5626 5626 5626 5624 5624
5644 5644 5643 5642 5641 5640 5639 5638 5637 5635 5634 5633 5631 5630 5630 5629 5628 5627 5626 5624 5624 5624 5624 5625 5624 5622 5620 5619 5620 5622 5622 5621 5620 5619 5619 5620 5618 5617
5637 5636 5635 5634 5633 5633 5632 5631 5629 5627 5626 5625 5624 5623 5622 5622 5621 5620 5620 5618 5617 5618 5617 5618 5619 5619 5618 5617 5615 5615 5616 5615 5615 5613 5613 5612 5611 5610
5630 5628 5627 5626 5625 5625 5625 5624 5622 5620 5619 5617 5616 5616 5616 5615 5613 5612 5612 5612 5612 5611 5612 5613 5614 5613 5611 5609 5608 5609 5609 5608 5607 5606 5606 5606 5605 5603
5621 5619 5619 5617 5615 5615 5615 5614 5613 5612 5610 5609 5608 5608 5608 5608 5607 5607 5606 5606 5606 5606 5605 5605 5605 5604 5603 5603 5603 5602 5602 5602 5600 5598 5596 5597 5598 5598